This is the latest recevied weather packets stored in our database for station/object DF7ER-12. If no packets are shown the sender has not sent any weather packets the latest 10 day(s).
| Time | Temp. | Humidity | Pressure | Rain* | Wind** | Luminosity | Snow |
|---|---|---|---|---|---|---|---|
| 1788505265 | 22.78° C | 98% | 998.4 hPa | - | - | - | - |
| 1788504965 | 22.78° C | 99% | 998.2 hPa | - | - | - | - |
| 1788504665 | 22.78° C | 100% | 998.4 hPa | - | - | - | - |
| 1788504365 | 22.78° C | 98% | 998.7 hPa | - | - | - | - |
| 1788504065 | 22.78° C | 98% | 998.8 hPa | - | - | - | - |
| 1788503765 | 22.78° C | 98% | 998.9 hPa | - | - | - | - |
| 1788503465 | 22.78° C | 98% | 998.9 hPa | - | - | - | - |
| 1788503165 | 22.22° C | 100% | 998.8 hPa | - | - | - | - |
| 1788502865 | 22.78° C | 99% | 999 hPa | - | - | - | - |
| 1788502565 | 22.22° C | 100% | 999.1 hPa | - | - | - | - |
| 1788502266 | 22.22° C | 97% | 999.2 hPa | - | - | - | - |
| 1788501965 | 22.22° C | 97% | 999.2 hPa | - | - | - | - |
| 1788501665 | 22.22° C | 98% | 999.3 hPa | - | - | - | - |
| 1788501365 | 22.22° C | 98% | 999.3 hPa | - | - | - | - |
| 1788501065 | 22.22° C | 98% | 999.4 hPa | - | - | - | - |
| 1788500773 | 22.22° C | 97% | 999.5 hPa | - | - | - | - |
| 1788500466 | 22.22° C | 97% | 999.6 hPa | - | - | - | - |
| 1788500165 | 22.22° C | 97% | 999.6 hPa | - | - | - | - |
| 1788499865 | 22.22° C | 96% | 999.7 hPa | - | - | - | - |
| 1788499565 | 22.22° C | 97% | 999.8 hPa | - | - | - | - |
| 1788499265 | 22.22° C | 96% | 999.9 hPa | - | - | - | - |
| 1788498965 | 22.22° C | 97% | 999.8 hPa | - | - | - | - |
| 1788498451 | 21.67° C | 97% | 999.7 hPa | - | - | - | - |
| 1788498150 | 21.67° C | 95% | 999.9 hPa | - | - | - | - |
| 1788497850 | 21.67° C | 96% | 1000.2 hPa | - | - | - | - |
* Rain since midnight (hover to see other rain measurements)
** Current wind speed in m/s (hover to see current wind gust speed)